Location: Coopersdale
(40.3556°N, 78.9372°W)
Time: 10:16:34
(UTC+00:00)

Tiros 1 despin weight - Visible Passes

Search period start: 18 June 2021 00:00
Search period end: 28 June 2021 00:00
Orbit: 593 x 641 km, 48.2° (Epoch: 17 June)

Date Brightness Start Highest point End Pass type
(mag) Time Alt. Az. Time Alt. Az. Time Alt. Az.
20 Jun ? 08:51:38 10° SSE 08:53:21 12° SE 08:55:05 10° ESE visible
21 Jun ? 09:05:43 10° S 09:09:18 24° SE 09:12:52 10° E visible
23 Jun ? 07:58:37 13° SSE 08:00:34 16° SE 08:03:21 10° E visible
24 Jun ? 08:14:08 19° S 08:16:34 32° SE 08:20:30 10° ENE visible
25 Jun ? 06:52:33 10° ESE 06:52:33 10° ESE 06:52:43 10° ESE visible
25 Jun ? 08:29:35 18° SW 08:32:42 60° SE 08:37:04 10° ENE visible
26 Jun ? 07:07:58 22° SE 07:07:58 22° SE 07:11:12 10° E visible
26 Jun ? 08:45:00 13° WSW 08:48:58 78° NNW 08:53:24 10° ENE visible
27 Jun ? 07:23:18 39° SSE 07:23:52 41° SE 07:28:01 10° ENE visible
27 Jun ? 09:01:02 10° W 09:05:21 49° NNW 09:09:40 10° NE visible
